Regional Weather Roundup
Issued by NWS Little Rock, AR

Home | Current Version | Previous Version | Graphics & Text | Print | Product List | Glossary On
Versions: 1 2 3 4 5 6 7 8 9 10 11 12 13 14 15 16 17 18 19 20 21 22 23 24 25 26 27 28 29 30 31 32 33 34 35 36 37 38 39 40 41 42 43 44 45 46 47 48 49 50
000
ASUS44 KLZK 020205
RWRLZK

WEATHER ROUNDUP FOR ARKANSAS
NATIONAL WEATHER SERVICE LITTLE ROCK AR
900 PM CDT WED APR 01 2015

NOTE: "FAIR" INDICATES FEW OR NO CLOUDS BELOW 12,000 FEET WITH NO
SIGNIFICANT WEATHER AND/OR OBSTRUCTIONS TO VISIBILITY.

ARZ001-003-010-029-020300-
NORTHWEST ARKANSAS

CITY           SKY/WX    TMP DP  RH WIND       PRES   REMARKS
FAYETTEVILLE   CLEAR     65  58  78 S12       29.84R
FORT SMITH     MOCLDY    68  58  70 SE3       29.84R
HARRISON       CLOUDY    61  59  93 SE10        N/A
BENTONVILLE    CLEAR     64  55  72 S5        29.83S
ROGERS         PTCLDY    66  58  75 S10       29.84R
SILOAM SPGS    CLEAR     66  54  63 S12       29.84R
HIGHFILL       CLEAR     63  55  75 S10       29.82R
SPRINGDALE     PTCLDY    66  59  77 S9        29.86R
$$

ARZ004-005-016-020300-
NORTH CENTRAL ARKANSAS

CITY           SKY/WX    TMP DP  RH WIND       PRES   REMARKS
BATESVILLE     CLOUDY    72  63  73 SE7       29.88S
FLIPPIN        CLOUDY    63  55  77 E6        29.88F
MTN HOME       TSTM      59  58  96 SE10      29.89R FOG
$$

ARZ040-041-020300-
WEST CENTRAL ARKANSAS

CITY           SKY/WX    TMP DP  RH WIND       PRES   REMARKS
MENA           MOCLDY    64  63  94 CALM      29.89R
MOUNT IDA      LGT RAIN  61  61 100 CALM      29.87F
$$

ARZ009-017-025-026-028-020300-
NORTHEAST ARKANSAS

CITY           SKY/WX    TMP DP  RH WIND       PRES   REMARKS
CORNING          N/A     64  59  82 SE12      29.92F
JONESBORO      MOCLDY    65  62  90 E6        29.92R
NEWPORT        MOCLDY    70  64  81 SE16      29.90F
BLYTHEVILLE    PTCLDY    65  60  84 SE8       29.96R
$$

ARZ022-023-033-042-044-020300-
CENTRAL ARKANSAS

CITY           SKY/WX    TMP DP  RH WIND       PRES   REMARKS
LITTLE ROCK    TSTM      68  60  75 NW12G23   29.89R
N LITTLE ROCK  CLOUDY    67  64  91 W10G20    29.88R
JACKSONVILLE   TSTM      67  63  86 W13G25    29.91R FOG
SEARCY         LGT RAIN  71  63  75 S7        29.91R
HOT SPRINGS    LGT RAIN  63  61  93 W7        29.93R
RUSSELLVILLE   CLOUDY    63  60  90 SE6       29.86R
CLINTON        LGT RAIN  64  63  94 CALM      29.89F
$$

ARZ036-020300-
EAST ARKANSAS

CITY           SKY/WX    TMP DP  RH WIND       PRES   REMARKS
WEST MEMPHIS   MOCLDY    70  62  76 SE8       29.93S
$$

ARZ050-053-066-070-073-020300-
SOUTHWEST ARKANSAS

CITY           SKY/WX    TMP DP  RH WIND       PRES   REMARKS
ARKADELPHIA    MOCLDY    74  65  73 N3        29.89R
CAMDEN         CLOUDY    75  57  53 MISG      29.90R
TEXARKANA      MOCLDY    71  60  68 S5        29.88R
EL DORADO      MOCLDY    71  61  70 S15G21    29.91S
DE QUEEN       CLOUDY    66  63  90 E3        29.85R
$$

ARZ056-057-069-020300-
SOUTHEAST ARKANSAS

CITY           SKY/WX    TMP DP  RH WIND       PRES   REMARKS
PINE BLUFF     CLOUDY    72  62  71 SE9       29.89R
STUTTGART      CLOUDY    72  61  68 SE8       29.91R
MONTICELLO     PTCLDY    71  61  70 SE6       29.92R

$$





USA.gov is the U.S. government's official web portal to all federal, state and local government web resources and services.